This is the latest recevied weather packets stored in our database for station/object N7ZAP. If no packets are shown the sender has not sent any weather packets the latest 10 day(s).
| Time | Temp. | Humidity | Pressure | Rain* | Wind** | Luminosity | Snow |
|---|---|---|---|---|---|---|---|
| 1788230466 | 18.89° C | 85% | 1021.3 hPa | 0 mm | - | - | - |
| 1788230165 | 18.89° C | 80% | 1021.4 hPa | 0 mm | - | - | - |
| 1788229860 | 18.89° C | 81% | 1021.4 hPa | 0 mm | - | - | - |
| 1788229555 | 18.89° C | 84% | 1021.7 hPa | 0 mm | - | - | - |
| 1788229250 | 18.33° C | 86% | 1021.6 hPa | 0 mm | - | - | - |
| 1788228946 | 18.33° C | 87% | 1021.9 hPa | 1.27 mm | - | - | - |
| 1788228641 | 18.33° C | 87% | 1021.8 hPa | 1.78 mm | - | - | - |
| 1788228336 | 18.33° C | 85% | 1021.9 hPa | 6.1 mm | - | - | - |
| 1788228032 | 18.89° C | 86% | 1022 hPa | 10.16 mm | - | - | - |
| 1788227727 | 18.89° C | 84% | 1021.9 hPa | 15.49 mm | - | - | - |
| 1788227426 | 19.44° C | 80% | 1022.4 hPa | 19.81 mm | - | - | - |
| 1788227122 | 21.11° C | 74% | 1022.6 hPa | 10.67 mm | - | - | - |
| 1788226818 | 24.44° C | 66% | 1022.5 hPa | 1.27 mm | - | - | - |
| 1788226514 | 26.67° C | 44% | 1022.4 hPa | 0 mm | - | - | - |
| 1788226209 | 27.22° C | 36% | 1021.6 hPa | 0 mm | - | - | - |
| 1788225911 | 27.22° C | 36% | 1021.3 hPa | 0 mm | - | - | - |
| 1788225604 | 27.22° C | 36% | 1021.1 hPa | 0 mm | - | - | - |
| 1788225301 | 27.22° C | 35% | 1020.5 hPa | 0 mm | - | - | - |
| 1788224998 | 27.78° C | 35% | 1020.6 hPa | 0 mm | - | - | - |
| 1788224694 | 27.78° C | 35% | 1020.7 hPa | 0 mm | - | - | - |
| 1788224393 | 27.78° C | 34% | 1020.4 hPa | 0 mm | - | - | - |
| 1788224088 | 28.33° C | 34% | 1020.3 hPa | 0 mm | - | - | - |
| 1788223783 | 28.33° C | 35% | 1020.2 hPa | 0 mm | - | - | - |
| 1788223482 | 28.33° C | 34% | 1019.9 hPa | 0 mm | - | - | - |
| 1788223177 | 28.33° C | 34% | 1020.1 hPa | 0 mm | - | - | - |
* Rain latest hour (hover to see other rain measurements)
** Current wind speed in m/s (hover to see current wind gust speed)